Crookston, MN

7:02 AM CST on February 24, 2018 (GMT -0600)
Crookston Municipal-Kirkwood

Weather History for KCKN - November, 2013

Change the Weather History Date:

Sunday, November 24, 2013

  Actual Average Record
Temperature  
Mean Temperature 20 °F -  
Max Temperature 33 °F 28 °F 53 °F (2011)
Min Temperature 8 °F 14 °F -13 °F (1996)
Degree Days  
Heating Degree Days 44    
Moisture  
Dew Point 15 °F    
Average Humidity 77    
Maximum Humidity 86    
Minimum Humidity 68    
Precipitation  
Precipitation 0.00 in - - ()
Sea Level Pressure  
Sea Level Pressure 30.02 in    
Wind  
Wind Speed 18 mph (SSW)    
Max Wind Speed 32 mph    
Max Gust Speed 40 mph    
Visibility 10 miles    
Events      
Averages and records for this station are not official NWS values.
T = Trace of Precipitation, MM = Missing Value Source: NWS Daily Summary

Daily Weather History Graph

Daily Weather History Graph

Search for Another Location

Airport or City:

Trip Planner

Search our weather history database for the weather conditions in past years. The results will help you decide how hot, cold, wet, or windy it might be!

Date:

Astronomy

Nov. 24, 2013 Rise Set
Actual Time 7:45 AM CST 4:40 PM CST
Civil Twilight 7:11 AM CST 5:15 PM CST
Nautical Twilight 6:32 AM CST 5:53 PM CST
Astronomical Twilight 5:55 AM CST 6:30 PM CST
Moon 11:22 PM CST 12:21 PM CST
Length of Visible Light 10h 04m
Length of Day
8h 54m
Waning Gibbous, 60% of the Moon is Illuminated
Nov 24
Waning Gibbous
Nov 25
Last Quarter
Dec 2
New
Dec 9
First Quarter
Dec 17
Full

Hourly Weather History & Observations

Time (CST) Temp. Windchill Dew Point Humidity Pressure Visibility Wind Dir Wind Speed Gust Speed Precip Events Conditions
12:15 AM 8.6 °F -9.5 °F 3.2 °F 79% 30.53 in 10.0 mi South 17.3 mph 23.0 mph N/A   Clear
12:34 AM 8.6 °F -9.5 °F 3.2 °F 79% 30.52 in 10.0 mi South 17.3 mph - N/A   Clear
12:55 AM 8.6 °F -8.9 °F 3.2 °F 79% 30.51 in 10.0 mi South 16.1 mph - N/A   Clear
1:14 AM 8.6 °F -10.0 °F 3.2 °F 79% 30.49 in 10.0 mi South 18.4 mph - N/A   Clear
1:34 AM 8.6 °F -9.5 °F 3.2 °F 79% 30.48 in 10.0 mi South 17.3 mph - N/A   Clear
1:55 AM 8.6 °F -9.5 °F 3.2 °F 79% 30.46 in 10.0 mi South 17.3 mph - N/A   Clear
2:14 AM 8.6 °F -10.0 °F 3.2 °F 79% 30.45 in 10.0 mi South 18.4 mph - N/A   Clear
2:34 AM 8.6 °F -10.0 °F 1.4 °F 73% 30.44 in 10.0 mi South 18.4 mph - N/A   Clear
2:55 AM 8.6 °F -8.3 °F 1.4 °F 73% 30.42 in 10.0 mi South 15.0 mph - N/A   Clear
3:14 AM 8.6 °F -8.3 °F 3.2 °F 79% 30.41 in 10.0 mi South 15.0 mph - N/A   Clear
3:34 AM 8.6 °F -8.3 °F 3.2 °F 79% 30.39 in 10.0 mi South 15.0 mph - N/A   Clear
3:55 AM 8.6 °F -9.5 °F 3.2 °F 79% 30.37 in 10.0 mi South 17.3 mph - N/A   Clear
4:14 AM 8.6 °F -9.5 °F 3.2 °F 79% 30.35 in 10.0 mi South 17.3 mph - N/A   Clear
4:34 AM 8.6 °F -9.5 °F 3.2 °F 79% 30.33 in 10.0 mi South 17.3 mph - N/A   Clear
4:55 AM 10.4 °F -8.2 °F 3.2 °F 73% 30.31 in 10.0 mi South 19.6 mph - N/A   Clear
5:14 AM 10.4 °F -7.7 °F 3.2 °F 73% 30.29 in 10.0 mi South 18.4 mph - N/A   Clear
5:34 AM 10.4 °F -7.7 °F 3.2 °F 73% 30.28 in 10.0 mi South 18.4 mph - N/A   Clear
5:55 AM 10.4 °F -8.2 °F 3.2 °F 73% 30.26 in 10.0 mi South 19.6 mph - N/A   Clear
6:14 AM 10.4 °F -8.2 °F 3.2 °F 73% 30.24 in 10.0 mi South 19.6 mph 26.5 mph N/A   Clear
6:34 AM 10.4 °F -7.7 °F 3.2 °F 73% 30.22 in 10.0 mi South 18.4 mph - N/A   Clear
6:55 AM 10.4 °F -7.2 °F 3.2 °F 73% 30.20 in 10.0 mi South 17.3 mph 26.5 mph N/A   Clear
7:14 AM 12.2 °F -5.8 °F 5.0 °F 73% 30.18 in 10.0 mi South 19.6 mph 25.3 mph N/A   Clear
7:34 AM 12.2 °F -6.7 °F 5.0 °F 73% 30.16 in 10.0 mi South 21.9 mph 27.6 mph N/A   Clear
7:55 AM 12.2 °F -6.7 °F 5.0 °F 73% 30.14 in 10.0 mi South 21.9 mph 27.6 mph N/A   Clear
8:14 AM 14.0 °F -5.1 °F 6.8 °F 73% 30.12 in 10.0 mi South 24.2 mph 31.1 mph N/A   Clear
8:34 AM 15.8 °F -3.4 °F 6.8 °F 68% 30.10 in 10.0 mi South 26.5 mph 34.5 mph N/A   Clear
8:55 AM 15.8 °F -4.1 °F 8.6 °F 73% 30.07 in 10.0 mi South 28.8 mph 35.7 mph N/A   Clear
9:14 AM 15.8 °F -4.7 °F 8.6 °F 73% 30.06 in 10.0 mi South 31.1 mph 35.7 mph N/A   Clear
9:34 AM 17.6 °F -1.0 °F 10.4 °F 73% 30.04 in 10.0 mi South 26.5 mph 39.1 mph N/A   Clear
9:55 AM 17.6 °F -1.6 °F 10.4 °F 73% 30.02 in 10.0 mi SSW 28.8 mph 40.3 mph N/A   Clear
10:14 AM 17.6 °F -1.6 °F 10.4 °F 73% 30.00 in 10.0 mi SSW 28.8 mph 36.8 mph N/A   Clear
10:35 AM 19.4 °F -0.0 °F 12.2 °F 74% 30.00 in 10.0 mi SSW 32.2 mph 35.7 mph N/A   Clear
10:54 AM 19.4 °F 0.2 °F 12.2 °F 74% 29.98 in 10.0 mi SSW 31.1 mph 35.7 mph N/A   Clear
11:14 AM 21.2 °F 5.6 °F 14.0 °F 74% 29.99 in 10.0 mi SW 20.7 mph 26.5 mph N/A   Clear
11:35 AM 21.2 °F 4.5 °F 15.8 °F 80% 29.97 in 10.0 mi SSW 24.2 mph 27.6 mph N/A   Clear
11:54 AM 23.0 °F 6.6 °F 15.8 °F 74% 29.95 in 10.0 mi SSW 25.3 mph 31.1 mph N/A   Clear
12:14 PM 23.0 °F 5.4 °F 17.6 °F 80% 29.92 in 10.0 mi SSW 29.9 mph 34.5 mph N/A   Clear
12:35 PM 24.8 °F 9.6 °F 17.6 °F 74% 29.91 in 10.0 mi SSW 23.0 mph 29.9 mph N/A   Clear
12:54 PM 24.8 °F 10.7 °F 19.4 °F 80% 29.90 in 10.0 mi SSW 19.6 mph 32.2 mph N/A   Clear
1:14 PM 26.6 °F 13.4 °F 19.4 °F 74% 29.88 in 10.0 mi SSW 18.4 mph 25.3 mph N/A   Clear
1:35 PM 28.4 °F 15.4 °F 21.2 °F 74% 29.87 in 10.0 mi SSW 19.6 mph - N/A   Clear
1:54 PM 28.4 °F 16.6 °F 23.0 °F 80% 29.85 in 10.0 mi SSW 16.1 mph 25.3 mph N/A   Clear
2:14 PM 28.4 °F 17.5 °F 23.0 °F 80% 29.84 in 10.0 mi SSW 13.8 mph - N/A   Clear
2:35 PM 30.2 °F 20.8 °F 24.8 °F 80% 29.87 in 10.0 mi SW 11.5 mph - N/A   Clear
2:54 PM 30.2 °F 18.5 °F 24.8 °F 80% 29.82 in 10.0 mi SSW 17.3 mph - N/A   Scattered Clouds
3:14 PM 32.0 °F 20.8 °F 24.8 °F 75% 29.83 in 10.0 mi SW 17.3 mph - N/A   Mostly Cloudy
3:35 PM 32.0 °F 21.6 °F 24.8 °F 75% 29.82 in 10.0 mi SSW 15.0 mph - N/A   Overcast
3:54 PM 33.8 °F 24.3 °F 24.8 °F 70% 29.82 in 10.0 mi SSW 13.8 mph - N/A   Overcast
4:14 PM 33.8 °F 24.3 °F 26.6 °F 75% 29.82 in 10.0 mi SSW 13.8 mph - N/A   Overcast
4:35 PM 33.8 °F 25.3 °F 26.6 °F 75% 29.81 in 10.0 mi SSW 11.5 mph - N/A   Overcast
4:54 PM 33.8 °F 24.8 °F 26.6 °F 75% 29.81 in 10.0 mi SW 12.7 mph - N/A   Overcast
5:14 PM 33.8 °F 26.4 °F 26.6 °F 75% 29.81 in 10.0 mi SW 9.2 mph - N/A   Overcast
5:35 PM 33.8 °F 25.8 °F 26.6 °F 75% 29.80 in 10.0 mi SW 10.4 mph - N/A   Mostly Cloudy
5:54 PM 33.8 °F 25.3 °F 26.6 °F 75% 29.79 in 10.0 mi SSW 11.5 mph - N/A   Mostly Cloudy
6:15 PM 32.0 °F 23.6 °F 26.6 °F 80% 29.79 in 10.0 mi SW 10.4 mph - N/A   Scattered Clouds
6:35 PM 30.2 °F 21.3 °F 26.6 °F 86% 29.78 in 10.0 mi SW 10.4 mph - N/A   Clear
6:54 PM 30.2 °F 21.9 °F 26.6 °F 86% 29.77 in 10.0 mi SW 9.2 mph - N/A   Scattered Clouds
7:15 PM 32.0 °F 23.6 °F 26.6 °F 80% 29.77 in 10.0 mi SW 10.4 mph - N/A   Mostly Cloudy
7:35 PM 32.0 °F 23.6 °F 26.6 °F 80% 29.76 in 10.0 mi WSW 10.4 mph - N/A   Scattered Clouds
7:54 PM 33.8 °F 25.8 °F 26.6 °F 75% 29.76 in 10.0 mi WSW 10.4 mph - N/A   Mostly Cloudy
8:15 PM 33.8 °F 25.8 °F 26.6 °F 75% 29.75 in 10.0 mi WSW 10.4 mph - N/A   Scattered Clouds
8:35 PM 32.0 °F 24.2 °F 26.6 °F 80% 29.75 in 10.0 mi WSW 9.2 mph - N/A   Clear
8:54 PM 30.2 °F 22.6 °F 26.6 °F 86% 29.75 in 10.0 mi WSW 8.1 mph - N/A   Clear
9:15 PM 30.2 °F 21.3 °F 24.8 °F 80% 29.75 in 10.0 mi WSW 10.4 mph - N/A   Clear
9:35 PM 30.2 °F 21.3 °F 26.6 °F 86% 29.75 in 10.0 mi WSW 10.4 mph - N/A   Clear
9:54 PM 30.2 °F 20.8 °F 26.6 °F 86% 29.74 in 10.0 mi West 11.5 mph - N/A   Clear
10:15 PM 30.2 °F 22.6 °F 24.8 °F 80% 29.75 in 10.0 mi West 8.1 mph - N/A   Clear
10:34 PM 28.4 °F 19.7 °F 24.8 °F 86% 29.76 in 10.0 mi WNW 9.2 mph - N/A   Clear
10:54 PM 28.4 °F 18.5 °F 24.8 °F 86% 29.75 in 10.0 mi West 11.5 mph - N/A   Clear
11:15 PM 28.4 °F 18.5 °F 24.8 °F 86% 29.76 in 10.0 mi WNW 11.5 mph - N/A   Clear
11:35 PM 28.4 °F 18.0 °F 24.8 °F 86% 29.76 in 10.0 mi WNW 12.7 mph - N/A   Clear
11:54 PM 28.4 °F 18.0 °F 24.8 °F 86% 29.77 in 10.0 mi WNW 12.7 mph - N/A   Clear